Time,TemperatureF,DewpointF,PressureIn,WindDirection,WindDirectionDegrees,WindSpeedMPH,WindSpeedGustMPH,Humidity,HourlyPrecipIn,Conditions,Clouds,dailyrainin,SolarRadiationWatts/m^2,SoftwareType,DateUTC
2014-01-02 00:12:00,4.0,-4.0,-100.00,NNW,334,4.0,9.0,70,0.00,,,-99.99,0.000000,,2014-01-02 06:12:00,
2014-01-02 00:22:00,4.0,-4.0,-100.00,NNW,334,4.0,9.0,70,0.00,,,-99.99,0.000000,,2014-01-02 06:22:00,
2014-01-02 00:32:00,4.0,-4.0,-100.00,NNW,334,4.0,9.0,70,0.00,,,-99.99,0.000000,,2014-01-02 06:32:00,
2014-01-02 00:42:00,4.0,-4.0,-100.00,NNW,334,4.0,9.0,70,0.00,,,-99.99,0.000000,,2014-01-02 06:42:00,
2014-01-02 01:12:00,1.0,-5.0,-100.00,North,-999,0.0,7.0,74,0.00,,,0.00,0.000000,,2014-01-02 07:12:00,
2014-01-02 01:22:00,1.0,-5.0,-100.00,North,-999,0.0,7.0,74,0.00,,,0.00,0.000000,,2014-01-02 07:22:00,
2014-01-02 01:32:00,1.0,-5.0,-100.00,North,-999,0.0,7.0,74,0.00,,,0.00,0.000000,,2014-01-02 07:32:00,
2014-01-02 01:42:00,1.0,-5.0,-100.00,North,-999,0.0,7.0,74,0.00,,,0.00,0.000000,,2014-01-02 07:42:00,
2014-01-02 02:12:00,-3.0,-8.0,-100.00,NW,317,1.0,3.0,79,0.00,,,0.00,0.000000,,2014-01-02 08:12:00,
2014-01-02 02:22:00,-3.0,-8.0,-100.00,NW,317,1.0,3.0,79,0.00,,,0.00,0.000000,,2014-01-02 08:22:00,
2014-01-02 02:32:00,-3.0,-8.0,-100.00,NW,317,1.0,3.0,79,0.00,,,0.00,0.000000,,2014-01-02 08:32:00,
2014-01-02 02:42:00,-3.0,-8.0,-100.00,NW,317,1.0,3.0,79,0.00,,,0.00,0.000000,,2014-01-02 08:42:00,
2014-01-02 03:11:00,-3.0,-8.0,-100.00,WNW,302,2.0,4.0,77,0.00,,,0.00,0.000000,,2014-01-02 09:11:00,
2014-01-02 03:22:00,-3.0,-8.0,-100.00,WNW,302,2.0,4.0,77,0.00,,,0.00,0.000000,,2014-01-02 09:22:00,
2014-01-02 03:33:00,-3.0,-8.0,-100.00,WNW,302,2.0,4.0,77,0.00,,,0.00,0.000000,,2014-01-02 09:33:00,
2014-01-02 03:43:00,-3.0,-8.0,-100.00,WNW,302,2.0,4.0,77,0.00,,,0.00,0.000000,,2014-01-02 09:43:00,
2014-01-02 04:13:00,-4.0,-9.0,-100.00,NW,305,3.0,5.0,77,0.00,,,0.00,0.000000,,2014-01-02 10:13:00,
2014-01-02 04:23:00,-4.0,-9.0,-100.00,NW,305,3.0,5.0,77,0.00,,,0.00,0.000000,,2014-01-02 10:23:00,
2014-01-02 04:33:00,-4.0,-9.0,-100.00,NW,305,3.0,5.0,77,0.00,,,0.00,0.000000,,2014-01-02 10:33:00,
2014-01-02 04:43:00,-4.0,-9.0,-100.00,NW,305,3.0,5.0,77,0.00,,,0.00,0.000000,,2014-01-02 10:43:00,
2014-01-02 05:12:00,-5.0,-10.0,-100.00,WNW,298,3.0,5.0,78,0.00,,,-99.99,0.000000,,2014-01-02 11:12:00,
2014-01-02 05:22:00,-5.0,-10.0,-100.00,WNW,298,3.0,5.0,78,0.00,,,-99.99,0.000000,,2014-01-02 11:22:00,
2014-01-02 05:33:00,-5.0,-10.0,-100.00,WNW,298,3.0,5.0,78,0.00,,,-99.99,0.000000,,2014-01-02 11:33:00,
2014-01-02 05:42:00,-5.0,-10.0,-100.00,WNW,298,3.0,5.0,78,0.00,,,-99.99,0.000000,,2014-01-02 11:42:00,
2014-01-02 06:12:00,-3.0,-8.0,-100.00,NW,310,5.0,8.0,78,0.00,,,0.00,0.000000,,2014-01-02 12:12:00,
2014-01-02 06:22:00,-3.0,-8.0,-100.00,NW,310,5.0,8.0,78,0.00,,,0.00,0.000000,,2014-01-02 12:22:00,
2014-01-02 06:33:00,-3.0,-8.0,-100.00,NW,310,5.0,8.0,78,0.00,,,0.00,0.000000,,2014-01-02 12:33:00,
2014-01-02 06:42:00,-3.0,-8.0,-100.00,NW,310,5.0,8.0,78,0.00,,,0.00,0.000000,,2014-01-02 12:42:00,
2014-01-02 07:11:00,-1.0,-6.0,-100.00,NW,314,4.0,7.0,78,0.00,,,0.00,0.000000,,2014-01-02 13:11:00,
2014-01-02 07:22:00,-1.0,-6.0,-100.00,NW,314,4.0,7.0,78,0.00,,,0.00,0.000000,,2014-01-02 13:22:00,
2014-01-02 07:33:00,-1.0,-6.0,-100.00,NW,314,4.0,7.0,78,0.00,,,0.00,0.000000,,2014-01-02 13:33:00,
2014-01-02 07:42:00,-1.0,-6.0,-100.00,NW,314,4.0,7.0,78,0.00,,,0.00,0.000000,,2014-01-02 13:42:00,
2014-01-02 08:12:00,0.0,-5.0,-100.00,NNW,331,4.0,8.0,78,0.00,,,-99.99,0.000000,,2014-01-02 14:12:00,
2014-01-02 08:22:00,0.0,-5.0,-100.00,NNW,331,4.0,8.0,78,0.00,,,-99.99,0.000000,,2014-01-02 14:22:00,
2014-01-02 08:32:00,0.0,-5.0,-100.00,NNW,331,4.0,8.0,78,0.00,,,-99.99,0.000000,,2014-01-02 14:32:00,
2014-01-02 08:42:00,0.0,-5.0,-100.00,NNW,331,4.0,8.0,78,0.00,,,-99.99,0.000000,,2014-01-02 14:42:00,
2014-01-02 09:12:00,1.0,-5.0,-100.00,NNW,333,4.0,8.0,76,0.00,,,0.00,24.000000,,2014-01-02 15:12:00,
2014-01-02 09:22:00,1.0,-5.0,-100.00,NNW,333,4.0,8.0,76,0.00,,,0.00,24.000000,,2014-01-02 15:22:00,
2014-01-02 09:33:00,1.0,-5.0,-100.00,NNW,333,4.0,8.0,76,0.00,,,0.00,24.000000,,2014-01-02 15:33:00,
2014-01-02 09:43:00,1.0,-5.0,-100.00,NNW,333,4.0,8.0,76,0.00,,,0.00,24.000000,,2014-01-02 15:43:00,
2014-01-02 10:13:00,2.0,-6.0,-100.00,North,359,4.0,10.0,70,0.00,,,0.00,114.000000,,2014-01-02 16:13:00,
2014-01-02 10:24:00,2.0,-6.0,-100.00,North,359,4.0,10.0,70,0.00,,,0.00,114.000000,,2014-01-02 16:24:00,
2014-01-02 10:33:00,2.0,-6.0,-100.00,North,359,4.0,10.0,70,0.00,,,0.00,114.000000,,2014-01-02 16:33:00,
2014-01-02 10:43:00,2.0,-6.0,-100.00,North,359,4.0,10.0,70,0.00,,,0.00,114.000000,,2014-01-02 16:43:00,
2014-01-02 11:12:00,5.0,-7.0,-100.00,North,352,5.0,10.0,57,0.00,,,0.00,320.000000,,2014-01-02 17:12:00,
2014-01-02 11:22:00,5.0,-7.0,-100.00,North,352,5.0,10.0,57,0.00,,,0.00,320.000000,,2014-01-02 17:22:00,
2014-01-02 11:33:00,5.0,-7.0,-100.00,North,352,5.0,10.0,57,0.00,,,0.00,320.000000,,2014-01-02 17:33:00,
2014-01-02 11:42:00,5.0,-7.0,-100.00,North,352,5.0,10.0,57,0.00,,,0.00,320.000000,,2014-01-02 17:42:00,
2014-01-02 12:12:00,7.0,-6.0,-100.00,NW,326,5.0,9.0,55,0.00,,,0.00,456.000000,,2014-01-02 18:12:00,
2014-01-02 12:22:00,7.0,-6.0,-100.00,NW,326,5.0,9.0,55,0.00,,,0.00,456.000000,,2014-01-02 18:22:00,
2014-01-02 12:32:00,7.0,-6.0,-100.00,NW,326,5.0,9.0,55,0.00,,,0.00,456.000000,,2014-01-02 18:32:00,
2014-01-02 12:43:00,7.0,-6.0,-100.00,NW,326,5.0,9.0,55,0.00,,,0.00,456.000000,,2014-01-02 18:43:00,
2014-01-02 13:11:00,9.0,-6.0,-100.00,NW,320,5.0,10.0,50,0.00,,,0.00,556.000000,,2014-01-02 19:11:00,
2014-01-02 13:22:00,9.0,-6.0,-100.00,NW,320,5.0,10.0,50,0.00,,,0.00,556.000000,,2014-01-02 19:22:00,
2014-01-02 13:33:00,9.0,-6.0,-100.00,NW,320,5.0,10.0,50,0.00,,,0.00,556.000000,,2014-01-02 19:33:00,
2014-01-02 13:42:00,9.0,-6.0,-100.00,NW,320,5.0,10.0,50,0.00,,,0.00,556.000000,,2014-01-02 19:42:00,
2014-01-02 14:11:00,10.0,-5.0,-100.00,NNW,342,5.0,9.0,50,0.00,,,0.00,551.000000,,2014-01-02 20:11:00,
2014-01-02 14:22:00,10.0,-5.0,-100.00,NNW,342,5.0,9.0,50,0.00,,,0.00,551.000000,,2014-01-02 20:22:00,
2014-01-02 14:32:00,10.0,-5.0,-100.00,NNW,342,5.0,9.0,50,0.00,,,0.00,551.000000,,2014-01-02 20:32:00,
2014-01-02 14:42:00,10.0,-5.0,-100.00,NNW,342,5.0,9.0,50,0.00,,,0.00,551.000000,,2014-01-02 20:42:00,
2014-01-02 15:12:00,10.0,-5.0,-100.00,NNW,347,4.0,9.0,50,0.00,,,0.00,481.000000,,2014-01-02 21:12:00,
2014-01-02 15:22:00,10.0,-5.0,-100.00,NNW,347,4.0,9.0,50,0.00,,,0.00,481.000000,,2014-01-02 21:22:00,
2014-01-02 15:33:00,10.0,-5.0,-100.00,NNW,347,4.0,9.0,50,0.00,,,0.00,481.000000,,2014-01-02 21:33:00,
2014-01-02 15:44:00,10.0,-5.0,-100.00,NNW,347,4.0,9.0,50,0.00,,,0.00,481.000000,,2014-01-02 21:44:00,
2014-01-02 16:13:00,10.0,-4.0,-100.00,NW,309,3.0,7.0,51,0.00,,,0.00,352.000000,,2014-01-02 22:13:00,
2014-01-02 16:23:00,10.0,-4.0,-100.00,NW,309,3.0,7.0,51,0.00,,,0.00,352.000000,,2014-01-02 22:23:00,
2014-01-02 16:33:00,10.0,-4.0,-100.00,NW,309,3.0,7.0,51,0.00,,,0.00,352.000000,,2014-01-02 22:33:00,
2014-01-02 16:43:00,10.0,-4.0,-100.00,NW,309,3.0,7.0,51,0.00,,,0.00,352.000000,,2014-01-02 22:43:00,
2014-01-02 17:12:00,6.0,-6.0,-100.00,NNW,333,1.0,5.0,58,0.00,,,0.00,168.000000,,2014-01-02 23:12:00,
2014-01-02 17:22:00,6.0,-6.0,-100.00,NNW,333,1.0,5.0,58,0.00,,,0.00,168.000000,,2014-01-02 23:22:00,
2014-01-02 17:33:00,6.0,-6.0,-100.00,NNW,333,1.0,5.0,58,0.00,,,0.00,168.000000,,2014-01-02 23:33:00,
2014-01-02 17:42:00,6.0,-6.0,-100.00,NNW,333,1.0,5.0,58,0.00,,,0.00,168.000000,,2014-01-02 23:42:00,
2014-01-02 18:11:00,1.0,-7.0,-100.00,North,-999,0.0,3.0,68,0.00,,,0.00,5.000000,,2014-01-03 00:11:00,
2014-01-02 18:22:00,1.0,-7.0,-100.00,North,-999,0.0,3.0,68,0.00,,,0.00,5.000000,,2014-01-03 00:22:00,
2014-01-02 18:32:00,1.0,-7.0,-100.00,North,-999,0.0,3.0,68,0.00,,,0.00,5.000000,,2014-01-03 00:32:00,
2014-01-02 18:42:00,1.0,-7.0,-100.00,North,-999,0.0,3.0,68,0.00,,,0.00,5.000000,,2014-01-03 00:42:00,
2014-01-02 19:11:00,-2.0,-9.0,-100.00,NW,325,1.0,3.0,73,0.00,,,0.00,0.000000,,2014-01-03 01:11:00,
2014-01-02 19:22:00,-2.0,-9.0,-100.00,NW,325,1.0,3.0,73,0.00,,,0.00,0.000000,,2014-01-03 01:22:00,
2014-01-02 19:32:00,-2.0,-9.0,-100.00,NW,325,1.0,3.0,73,0.00,,,0.00,0.000000,,2014-01-03 01:32:00,
2014-01-02 19:42:00,-2.0,-9.0,-100.00,NW,325,1.0,3.0,73,0.00,,,0.00,0.000000,,2014-01-03 01:42:00,
2014-01-02 20:11:00,-4.0,-9.0,-100.00,North,-999,0.0,2.0,77,0.00,,,0.00,0.000000,,2014-01-03 02:11:00,
2014-01-02 20:22:00,-4.0,-9.0,-100.00,North,-999,0.0,2.0,77,0.00,,,0.00,0.000000,,2014-01-03 02:22:00,
2014-01-02 20:32:00,-4.0,-9.0,-100.00,North,-999,0.0,2.0,77,0.00,,,0.00,0.000000,,2014-01-03 02:32:00,
2014-01-02 20:42:00,-4.0,-9.0,-100.00,North,-999,0.0,2.0,77,0.00,,,0.00,0.000000,,2014-01-03 02:42:00,
2014-01-02 21:12:00,-4.0,-9.0,-100.00,North,-999,0.0,3.0,79,0.00,,,0.00,0.000000,,2014-01-03 03:12:00,
2014-01-02 21:22:00,-4.0,-9.0,-100.00,North,-999,0.0,3.0,79,0.00,,,0.00,0.000000,,2014-01-03 03:22:00,
2014-01-02 21:33:00,-4.0,-9.0,-100.00,North,-999,0.0,3.0,79,0.00,,,0.00,0.000000,,2014-01-03 03:33:00,
2014-01-02 21:43:00,-4.0,-9.0,-100.00,North,-999,0.0,3.0,79,0.00,,,0.00,0.000000,,2014-01-03 03:43:00,
2014-01-02 22:13:00,-6.0,-11.0,-100.00,North,-999,0.0,3.0,78,0.00,,,0.00,0.000000,,2014-01-03 04:13:00,
2014-01-02 22:23:00,-6.0,-11.0,-100.00,North,-999,0.0,3.0,78,0.00,,,0.00,0.000000,,2014-01-03 04:23:00,
2014-01-02 22:34:00,-6.0,-11.0,-100.00,North,-999,0.0,3.0,78,0.00,,,0.00,0.000000,,2014-01-03 04:34:00,
2014-01-02 22:43:00,-6.0,-11.0,-100.00,North,-999,0.0,3.0,78,0.00,,,0.00,0.000000,,2014-01-03 04:43:00,
2014-01-02 23:12:00,-6.0,-11.0,-100.00,North,-999,0.0,2.0,77,0.00,,,0.00,0.000000,,2014-01-03 05:12:00,
2014-01-02 23:22:00,-6.0,-11.0,-100.00,North,-999,0.0,2.0,77,0.00,,,0.00,0.000000,,2014-01-03 05:22:00,
2014-01-02 23:33:00,-6.0,-11.0,-100.00,North,-999,0.0,2.0,77,0.00,,,0.00,0.000000,,2014-01-03 05:33:00,
2014-01-02 23:43:00,-6.0,-11.0,-100.00,North,-999,0.0,2.0,77,0.00,,,0.00,0.000000,,2014-01-03 05:43:00,